Vorticity
nan nan nan nan nan nan nan nan nan nan nan nan nan nan nan nan nan nan nan nan nan nan nan nan nan nan nan nan nan nan nan nan nan nan nan nan nan nan nan nan nan nan nan
nan 3 4 5 6 7 8 8 8 10 11 8 8 9 9 9 13 13 13 9 9 9 8 10 8 7 8 10 7 6 6 9 8 4 9 10 9 12 11 8 9 6 nan
nan 3 4 6 6 7 7 8 8 9 9 10 11 10 10 7 9 10 12 14 11 6 8 7 6 9 7 10 10 9 5 5 8 6 1 5 8 9 14 9 7 8 nan
nan 5 6 6 7 9 7 8 8 10 9 10 10 10 10 11 13 11 8 9 12 12 10 7 8 7 8 10 8 7 7 7 6 7 6 2 7 6 5 12 12 9 nan
nan 5 7 8 8 7 8 9 9 9 10 12 12 11 9 9 8 12 11 12 13 13 12 10 9 6 8 10 7 10 4 6 7 5 10 9 6 8 6 9 10 8 nan
nan 6 7 8 9 8 9 8 9 10 11 10 11 11 11 9 7 8 12 10 10 13 13 11 10 9 8 6 5 8 5 7 7 7 5 9 8 9 6 6 11 10 nan
nan 7 7 9 8 7 9 9 9 10 10 11 12 13 14 16 12 6 11 10 9 10 14 10 10 8 4 5 11 8 11 8 8 8 5 7 6 7 8 8 6 9 nan
nan 6 7 8 8 8 9 8 9 11 12 11 13 14 16 15 15 11 9 12 13 9 12 11 10 8 7 9 10 8 13 10 10 8 6 8 9 9 9 10 9 6 nan
nan 6 8 8 9 9 9 9 10 11 11 12 13 13 14 17 20 15 10 11 10 9 8 10 9 12 11 12 9 9 9 8 9 9 8 7 9 9 10 9 10 8 nan
nan 7 8 8 10 10 10 10 10 11 12 13 12 11 10 13 26 29 12 8 9 10 7 11 10 9 9 10 5 8 11 9 7 10 10 6 7 9 9 8 6 8 nan
nan 8 8 8 9 9 9 10 10 10 12 13 10 10 11 14 19 25 18 12 10 10 12 12 10 10 9 5 9 11 9 7 7 8 10 8 7 7 8 9 8 7 nan
nan 9 8 8 8 8 9 9 11 11 12 13 10 10 10 12 13 12 21 24 14 18 13 7 11 8 7 8 6 6 9 14 8 8 8 9 10 12 7 8 9 9 nan
nan 9 9 8 8 8 9 9 9 10 12 13 11 11 9 11 12 11 18 25 19 13 13 12 12 10 10 8 13 14 7 9 9 10 9 10 9 8 9 9 8 8 nan
nan 9 8 8 8 9 9 10 10 9 9 12 12 11 9 12 14 13 11 16 26 25 13 12 13 13 16 11 8 6 15 14 14 14 14 13 13 12 9 9 9 9 nan
nan 8 9 9 8 9 9 9 10 10 11 10 11 11 13 12 11 13 13 13 12 16 21 19 12 16 16 16 17 12 11 13 10 8 11 12 11 13 17 16 12 9 nan
nan 8 9 9 9 9 10 9 10 11 13 10 9 10 12 11 12 14 15 10 10 11 15 15 16 14 8 12 20 18 11 12 14 10 8 6 8 5 12 21 20 21 nan
nan 9 10 10 10 9 10 11 11 11 12 12 9 10 12 11 11 11 11 9 12 9 10 12 12 11 10 18 20 15 12 11 10 11 11 10 10 11 8 12 16 15 nan
nan 10 10 9 10 10 11 11 11 11 10 10 11 11 11 12 11 12 12 11 12 11 8 9 14 11 10 16 15 12 11 10 10 11 12 12 10 16 14 10 8 6 nan
nan 9 8 9 9 10 12 11 10 9 10 10 10 11 11 11 11 11 10 11 11 11 10 10 12 12 10 14 18 14 7 8 7 9 12 17 12 18 19 11 7 8 nan
nan 10 12 9 9 9 9 10 9 9 9 10 11 12 11 11 10 10 11 11 10 11 10 8 5 11 10 11 21 20 12 8 7 6 5 11 19 18 20 17 10 6 nan
nan 11 10 12 13 12 9 7 8 8 10 10 10 11 11 10 11 11 11 12 10 9 9 8 7 7 8 8 14 24 23 13 10 9 9 6 14 17 17 16 18 15 nan
nan 12 11 10 10 12 13 13 11 10 8 8 9 9 12 13 9 11 13 12 11 10 10 10 9 7 1 2 7 13 20 20 14 11 12 11 8 10 11 15 16 14 nan
nan 11 10 9 9 9 10 10 13 15 12 12 10 9 9 11 12 10 12 12 11 10 11 10 9 9 10 2 -1 1 5 11 15 7 8 7 5 6 4 7 9 11 nan
nan 10 10 9 9 9 10 10 13 11 12 11 11 12 10 8 10 13 11 10 12 13 10 10 11 10 10 10 10 7 2 5 9 9 6 4 3 4 7 3 6 10 nan
nan 10 9 8 8 9 9 9 11 14 13 10 10 11 10 10 10 8 10 13 13 16 17 16 13 10 12 11 14 17 15 11 10 13 11 9 7 7 9 9 9 11 nan
nan nan nan nan nan nan nan nan nan nan nan nan nan nan nan nan nan nan nan nan nan nan nan nan nan nan nan nan nan nan nan nan nan nan nan nan nan nan nan nan nan nan nan
CAPE
0 0 0 0 0 0 0 0 0 0 0 0 0 0 0 507 1539 1905 2363 2997 2824 2983 2687 2383 2443 2197 1651 2033 1542 1454 1495 1283 1315 1059 591 748 723 834 536 297 145 17 3
2 0 0 0 0 0 0 0 0 0 0 0 0 0 3 18 663 1683 2160 2644 2607 2678 2183 2308 2283 2157 1791 2059 1542 1432 1262 1190 975 670 105 16 3 141 389 206 53 30 8
0 0 0 0 0 0 0 0 0 0 0 2 1 0 0 17 218 1840 1971 2256 2785 2723 2176 2345 2381 2012 1849 1734 1505 1407 1047 916 810 521 353 57 144 6 127 229 139 51 10
0 0 0 0 0 0 0 0 0 0 0 3 5 7 6 0 14 1043 1675 2158 2448 2248 2326 2493 2006 1780 1810 1652 1509 1380 1224 1240 691 709 651 763 443 218 11 20 166 106 51
0 0 0 0 0 0 0 1 2 2 4 6 6 6 9 12 125 535 1823 2330 2565 2300 2347 2437 1943 1610 1504 1491 1311 1237 1359 1450 985 641 441 919 658 394 250 6 17 59 95
0 0 0 0 0 0 4 8 6 3 6 3 4 6 9 11 36 617 1616 2261 2636 2138 2064 1842 1717 1588 1802 1397 1277 1427 1672 1675 1362 1139 879 773 443 246 337 322 100 35 66
0 0 0 0 0 0 3 6 6 5 3 3 4 8 13 13 16 253 1206 2242 2406 1923 1646 1621 1372 1633 1448 484 244 573 1215 1555 1399 1205 1086 533 900 531 332 407 281 12 10
0 0 0 0 0 0 5 7 6 4 2 6 6 10 9 14 14 176 1176 1856 2225 2021 1433 1461 1314 1377 1273 912 1103 1442 1557 1340 1147 1195 1163 875 702 562 353 267 312 53 3
0 0 0 0 1 2 6 9 4 6 3 8 7 9 8 10 140 1174 1749 2109 2270 1928 1506 1433 1331 1289 1296 1086 1094 815 981 1220 1430 1617 971 580 290 344 236 219 54 24 9
0 0 0 0 2 4 4 9 5 9 8 9 5 10 10 10 528 1487 1833 1959 2141 2040 1868 1648 1134 782 616 970 875 432 762 993 1477 1471 1198 773 413 275 154 128 21 4 0
0 0 0 1 5 4 5 7 8 9 9 11 5 6 10 11 9 1040 1259 1676 1922 1723 1481 1332 917 786 706 234 256 436 269 661 930 589 451 305 291 381 233 92 227 23 3
0 0 0 2 4 5 5 8 7 11 10 9 8 6 7 8 7 8 41 1316 1504 1409 1167 903 1023 858 626 600 113 45 205 431 606 513 334 176 137 329 238 224 17 10 10
0 0 1 2 6 6 8 8 3 8 13 7 7 5 8 9 7 6 6 361 989 831 767 835 815 862 729 633 392 34 25 359 635 552 327 155 209 140 141 152 60 105 48
5 4 3 6 6 6 6 7 21 9 14 8 6 3 8 11 13 6 10 4 2 363 514 572 622 454 482 573 651 334 228 276 374 394 330 295 164 84 124 30 26 46 14
5 4 6 7 6 7 6 7 9 14 10 6 4 2 4 6 10 6 4 5 7 1 3 27 14 47 56 84 176 156 57 80 61 3 0 0 0 0 0 6 24 12 3
4 4 5 7 6 6 5 9 7 11 10 6 5 6 9 3 4 4 5 1 2 1 2 2 2 0 0 0 1 0 0 0 0 0 0 0 0 0 0 0 1 0 0
6 9 5 4 8 10 3 9 8 8 8 9 6 6 5 3 0 5 3 2 2 0 0 1 2 3 1 0 1 0 0 0 0 0 0 0 0 1 0 0 0 0 0
10 13 11 14 13 16 9 9 9 5 6 9 9 6 5 4 1 2 4 5 2 0 0 0 1 2 2 1 0 0 1 2 1 1 1 1 2 0 1 0 0 0 0
19 17 18 17 16 18 9 9 8 6 5 13 12 8 8 8 5 5 4 5 1 1 1 1 0 0 1 3 1 0 1 1 2 2 2 2 2 0 0 0 0 1 0
17 21 24 16 14 13 7 8 10 8 12 13 10 9 7 6 6 9 10 7 5 1 1 1 1 3 1 0 0 1 0 1 2 2 3 5 2 1 0 0 0 0 1
18 20 15 22 14 19 13 11 13 13 14 15 12 9 10 8 6 9 3 2 5 8 3 1 0 0 3 5 6 3 1 2 2 3 3 5 6 5 3 1 1 1 1
15 20 22 12 6 6 7 12 3 15 14 15 13 8 7 11 11 9 9 7 4 8 10 11 6 6 1 8 9 7 5 2 2 2 4 7 9 8 7 3 5 2 0
9 3 2 3 3 4 4 5 8 11 18 17 11 14 12 10 14 14 11 9 12 13 12 12 7 5 8 10 10 11 5 4 1 3 6 7 5 3 2 5 3 1 0
5 5 3 3 1 1 2 1 1 1 0 3 5 11 16 9 11 11 15 12 8 14 12 11 11 10 8 7 8 14 10 6 9 8 8 3 1 1 1 1 1 1 2
6 5 4 3 1 0 1 1 0 0 0 0 0 3 9 14 5 3 5 11 16 11 10 14 11 10 9 12 8 6 8 8 5 11 12 12 13 12 12 8 7 7 8
8 7 6 6 3 1 2 3 3 2 0 0 0 1 3 3 3 6 3 1 0 0 5 6 8 17 5 1 1 0 0 0 0 7 10 15 17 11 10 8 10 12 9